[[{"header":{"parameterUnit":"m.s-1","parameterCategory":1,"la1":30.2991,"la2":30.254,"lo1":-89.0895,"lo2":-89.0444,"dy":0.0017,"dx":0.0017,"nx":28,"ny":28,"refTime":"2025-04-14T21:00:00:Z","depth":0,"parameterNumber":2,"parameterNumberName":"U-component_of_WINDS"},"data":[0,0,0,0,0,0,0,0,0,0,0,0,0,0,0,0,0,0,0,0,0,0,0,0,0,0,0,0,0,0,0,0,0,0,0,0,0,0,0,0,0,0,0,0,0,0,0,0,0,0,0,0,0,0,0,0,0,0,0.0585,0.0584,0,0.0481,0.048,0.0479,0.0467,0.0468,0.0469,0.047,0.0358,0.0355,0.0351,0,0,0,0,0,0,0,0,0,0,0,0,0,0.0768,0.0764,0.0585,0.0584,0.0583,0.0482,0.048,0.0479,0.0466,0.0468,0.0469,0.047,0.036,0.0355,0.035,0,0,0,0,0,0,0,0,0,0,0,0,0,0.0678,0.0763,0.0585,0.0564,0.0562,0.0482,0.048,0.0478,0.0466,0.0468,0.0469,0.0471,0.0361,0.0356,0.035,0.0282,0,0,0.0332,0.0329,0,0,0,0,0,0,0,0,0.0684,0.0672,0.0569,0.0566,0.0562,0.0489,0.0504,0.0413,0.0466,0.0502,0.047,0.0471,0.04,0.0391,0.0368,0.0277,0.0273,0.0331,0.0328,0.0325,0.0323,0,0,0,0,0,0,0,0.069,0.0676,0.0544,0.0567,0.0563,0.0558,0.0548,0.0486,0.0444,0.0499,0.0498,0.0486,0.0399,0.0374,0.0365,0.0271,0.0331,0.0326,0.0323,0.032,0.0118,0.0116,0,0,0,0,0,0,0.07,0.0681,0.0547,0.0541,0.0628,0.0554,0.0542,0.0511,0.0444,0.0436,0.0485,0.0486,0.0383,0.0372,0.0362,0.0277,0.0325,0.032,0.0316,0.012,0.0118,0.0116,0,0,0,0,0,0,0.0704,0.0689,0.0551,0.0611,0.0593,0.0549,0.0514,0.0508,0.0483,0.0434,0.0425,0.0468,0.0384,0.037,0.0302,0.0273,0.0317,0.0312,0.0122,0.0119,0.0117,0.0109,0,0,0,0,0,0,0.071,0.069,0.0665,0.061,0.059,0.0495,0.0513,0.0505,0.0474,0.0474,0.0415,0.0407,0.0384,0.0311,0.0296,0.0266,0.0307,0.0125,0.0121,0.0118,0.0112,0.0106,0.0102,0,0,0,0,0,0.0716,0.0666,0.0664,0.0648,0.0558,0.0494,0.0482,0.0458,0.0471,0.0445,0.0413,0.0409,0.0279,0.0304,0.0288,0.0255,0.0126,0.0122,0.0118,0.0114,0.0107,0.0102,0,0,0,0,0,0,0.0717,0.0659,0.0656,0.0587,0.0546,0.0492,0.0458,0.0452,0.0405,0.0407,0.0378,0.0364,0.0298,0.027,0.0299,0.0186,0.0204,0.0196,0.0206,0.02,0.0195,0.0202,0.0302,0,0,0,0,0,0.071,0.0664,0.0615,0.0559,0.0538,0.0502,0.0473,0.0458,0.0414,0.0395,0.0359,0.0314,0.0263,0.023,0.0181,0.0108,0.0094,0.0077,0.0072,0.0069,0.0062,0.002,0.0011,0.0102,0.0102,0.0102,0,0,0.0693,0.0655,0.0628,0.0558,0.0524,0.0476,0.0487,0.0435,0.0399,0.0387,0.0321,0.0293,0.0241,0.017,0.0137,0.0145,0.0034,0.0063,0.0061,0.0056,0.0014,0.0006,-0.0002,0.0099,0.01,0.01,0,0,0.0637,0.0605,0.0555,0.0521,0.0471,0.0447,0.0435,0.0382,0.0363,0.0297,0.0287,0.0242,0.0155,0.0119,0.0089,0.002,0.0013,0.0004,-0.0022,-0.0063,-0.007,-0.0076,-0.0103,-0.0112,-0.0002,-0.0002,-0.0002,0,0.0622,0.0551,0.0529,0.0478,0.0446,0.0436,0.0383,0.0351,0.0286,0.0264,0.0274,0.0165,0.0129,0.0049,0.0033,0.0009,-0.0007,0.001,-0.0067,-0.0073,-0.008,-0.0105,-0.0115,-0.0003,-0.0003,-0.0003,-0.0002,0,0.0534,0.0484,0.0449,0.0389,0.0353,0.0302,0.027,0.0237,0.0226,0.02,0.0132,0.009,0.0031,0.0011,-0.0001,-0.0071,-0.0065,-0.006,-0.0043,-0.0089,-0.0114,-0.0123,-0.0004,-0.0004,-0.0003,-0.0003,0,0,0.0475,0.0404,0.0391,0.0363,0.0306,0.0267,0.0214,0.0158,0.0129,0.0085,0.0039,-0.0034,-0.003,-0.0064,-0.008,-0.0116,-0.0169,-0.0107,-0.0109,-0.0119,-0.0251,-0.0256,-0.0266,-0.0173,-0.0175,-0.0176,-0.0247,0,0.0411,0.0319,0.0298,0.0217,0.017,0.016,0.0113,0.0073,0.0048,0.0003,-0.0025,-0.0077,-0.0067,-0.0088,-0.0123,-0.0155,-0.0197,-0.015,-0.0219,-0.0221,-0.0207,-0.0279,-0.0284,-0.0349,-0.0257,-0.0259,-0.026,0,0.0325,0.028,0.0196,0.0145,0.0125,0.0084,0.003,-0.0012,-0.0058,-0.0074,-0.0112,-0.0124,-0.0182,-0.016,-0.024,-0.0208,-0.0237,-0.0257,-0.026,-0.0269,-0.0244,-0.0292,-0.037,-0.038,-0.0275,-0.0273,-0.0272,0,0.0288,0.0207,0.0145,0.0122,0.0062,0.0033,0.0007,-0.0038,-0.0071,-0.0117,-0.0139,-0.0192,-0.0222,-0.0264,-0.0291,-0.0273,-0.037,-0.035,-0.0387,-0.0386,-0.0408,-0.0407,-0.0494,-0.0424,-0.0424,-0.0423,-0.0423,0,0.0218,0.0166,0.0128,0.009,0.0031,0.0007,-0.0051,-0.0078,-0.0118,-0.0163,-0.0175,-0.0217,-0.025,-0.0297,-0.0319,-0.0383,-0.0396,-0.0412,-0.0417,-0.0412,-0.041,-0.0433,-0.043,-0.0426,-0.0425,-0.0425,-0.0424,0,0.0166,0.0139,0.0071,0.002,0.0006,-0.0035,-0.0079,-0.0118,-0.0142,-0.0199,-0.0214,-0.0253,-0.0309,-0.034,-0.0411,-0.0425,-0.0498,-0.05,-0.0482,-0.0484,-0.052,-0.0517,-0.0626,-0.0643,-0.0559,-0.056,-0.0561,0,0.0123,0.0083,0.0028,-0.0002,-0.0028,-0.0077,-0.0109,-0.0135,-0.0169,-0.0225,-0.0257,-0.0313,-0.0359,-0.0449,-0.0485,-0.0539,-0.0544,-0.0579,-0.0553,-0.0546,-0.0547,-0.0545,-0.055,-0.0584,-0.0585,-0.0586,-0.0586,0,0.0048,0.0036,-0.0009,-0.006,-0.0098,-0.014,-0.0182,-0.0206,-0.0238,-0.0276,-0.0333,-0.0369,-0.044,-0.0497,-0.0554,-0.0583,-0.0591,-0.0593,-0.0605,-0.0601,-0.059,-0.0598,-0.0496,-0.0592,-0.0591,-0.0591,-0.059,-0.059,-0.0003,-0.0039,-0.0083,-0.0134,-0.0167,-0.0206,-0.0244,-0.0273,-0.032,-0.0379,-0.0392,-0.0452,-0.0498,-0.0576,-0.0606,-0.0655,-0.0649,-0.0665,-0.067,-0.0674,-0.0676,-0.058,-0.0665,-0.0665,-0.0665,-0.0665,-0.0665,0,-0.008,-0.0108,-0.0155,-0.0211,-0.0252,-0.0253,-0.0299,-0.0333,-0.0386,-0.0427,-0.0472,-0.0538,-0.0593,-0.0633,-0.0689,-0.072,-0.0726,-0.0735,-0.0734,-0.0741,-0.0678,-0.0663,-0.073,-0.073,-0.073,-0.073,-0.073,-0.073,-0.0125,-0.0187,-0.0204,-0.0283,-0.0311,-0.0369,-0.0396,-0.0432,-0.0465,-0.0537,-0.0582,-0.0607,-0.0649,-0.0708,-0.0759,-0.0769,-0.0791,-0.08,-0.0811,-0.0752,-0.0745,-0.0738,-0.0725,-0.0803,-0.0804,-0.087,-0.0871,-0.0871]},{"header":{"parameterUnit":"m.s-1","parameterCategory":1,"la1":30.2991,"la2":30.254,"lo1":-89.0895,"lo2":-89.0444,"dy":0.0017,"dx":0.0017,"nx":28,"ny":28,"refTime":"2025-04-14T21:00:00:Z","depth":0,"parameterNumber":3,"parameterNumberName":"V-component_of_WINDS"},"data":[0,0,0,0,0,0,0,0,0,0,0,0,0,0,0,0,0,0,0,0,0,0,0,0,0,0,0,0,0,0,0,0,0,0,0,0,0,0,0,0,0,0,0,0,0,0,0,0,0,0,0,0,0,0,0,0,0,0,-3.8631,-3.8631,0,-3.8667,-3.8668,-3.8668,-3.8581,-3.8578,-3.8575,-3.8573,-3.8609,-3.8613,-3.8616,0,0,0,0,0,0,0,0,0,0,0,0,0,-3.8486,-3.8489,-3.8631,-3.8631,-3.8632,-3.8667,-3.8668,-3.8668,-3.8581,-3.8578,-3.8575,-3.8571,-3.8608,-3.8612,-3.8617,0,0,0,0,0,0,0,0,0,0,0,0,0,-3.8538,-3.849,-3.8631,-3.8593,-3.859,-3.8667,-3.8668,-3.8668,-3.8582,-3.8578,-3.8574,-3.857,-3.8607,-3.8612,-3.8617,-3.8733,0,0,-3.8634,-3.8636,0,0,0,0,0,0,0,0,-3.8535,-3.8544,-3.8598,-3.8596,-3.8592,-3.8615,-3.863,-3.869,-3.8583,-3.8585,-3.8573,-3.8568,-3.8615,-3.8619,-3.8635,-3.8735,-3.8736,-3.8634,-3.8637,-3.864,-3.8641,0,0,0,0,0,0,0,-3.8532,-3.8542,-3.8645,-3.8599,-3.8595,-3.8574,-3.8576,-3.8641,-3.8623,-3.8584,-3.8578,-3.8584,-3.8612,-3.863,-3.8635,-3.8737,-3.8634,-3.8639,-3.8642,-3.8644,-3.8934,-3.8938,0,0,0,0,0,0,-3.8533,-3.8539,-3.8644,-3.8646,-3.8553,-3.858,-3.8583,-3.8612,-3.8622,-3.8619,-3.8587,-3.8579,-3.8623,-3.8629,-3.8636,-3.8773,-3.864,-3.8645,-3.8648,-3.8929,-3.8935,-3.894,0,0,0,0,0,0,-3.853,-3.8543,-3.8643,-3.8591,-3.8602,-3.8587,-3.862,-3.8615,-3.8633,-3.8624,-3.862,-3.8609,-3.862,-3.8629,-3.871,-3.8773,-3.8647,-3.8652,-3.8924,-3.8931,-3.8937,-3.9047,0,0,0,0,0,0,-3.8527,-3.8543,-3.8587,-3.8593,-3.8605,-3.8716,-3.8624,-3.8619,-3.8642,-3.8632,-3.8643,-3.8641,-3.8617,-3.8702,-3.8715,-3.8778,-3.8656,-3.8918,-3.8927,-3.8935,-3.9038,-3.9057,-3.9073,0,0,0,0,0,-3.8522,-3.8616,-3.859,-3.8603,-3.866,-3.872,-3.8727,-3.8698,-3.8648,-3.8692,-3.8686,-3.864,-3.8764,-3.8711,-3.8725,-3.879,-3.8914,-3.8925,-3.8934,-3.903,-3.9053,-3.9072,0,0,0,0,0,0,-3.8618,-3.8616,-3.8587,-3.8686,-3.8704,-3.8705,-3.876,-3.8724,-3.8756,-3.8746,-3.8709,-3.8712,-3.88,-3.8803,-3.8745,-3.8903,-3.883,-3.8844,-3.8898,-3.892,-3.8937,-3.8935,-3.866,0,0,0,0,0,-3.8651,-3.87,-3.8696,-3.8784,-3.8794,-3.8776,-3.8801,-3.8777,-3.8794,-3.8801,-3.8801,-3.8819,-3.8862,-3.8891,-3.893,-3.9037,-3.9038,-3.9089,-3.9106,-3.9121,-3.9133,-3.9191,-3.9213,-3.8973,-3.8973,-3.8972,0,0,-3.872,-3.8724,-3.8758,-3.8803,-3.8814,-3.8866,-3.8783,-3.8841,-3.8879,-3.881,-3.8887,-3.8888,-3.8905,-3.9,-3.9042,-3.9005,-3.92,-3.9134,-3.9145,-3.915,-3.9203,-3.9226,-3.9246,-3.898,-3.8978,-3.8977,0,0,-3.8871,-3.8879,-3.8954,-3.8967,-3.8984,-3.8971,-3.8989,-3.8996,-3.8994,-3.9071,-3.902,-3.9064,-3.9139,-3.9153,-3.917,-3.9327,-3.9287,-3.9341,-3.9433,-3.9489,-3.9508,-3.9525,-3.9581,-3.9602,-3.9353,-3.9353,-3.9353,0,-3.8954,-3.903,-3.8997,-3.9059,-3.908,-3.902,-3.9095,-3.9109,-3.9139,-3.9155,-3.9113,-3.9205,-3.9213,-3.9311,-3.9349,-3.9365,-3.9384,-3.934,-3.9508,-3.9525,-3.954,-3.9593,-3.9614,-3.9359,-3.9359,-3.9358,-3.9357,0,-3.9131,-3.9184,-3.9242,-3.9273,-3.9301,-3.9369,-3.9346,-3.9378,-3.9352,-3.9344,-3.9422,-3.9429,-3.9468,-3.9489,-3.9464,-3.9584,-3.9561,-3.9515,-3.9441,-3.957,-3.9619,-3.9639,-3.9369,-3.9366,-3.9365,-3.9363,0,0,-3.9345,-3.9356,-3.9378,-3.9391,-3.9406,-3.9447,-3.9512,-3.955,-3.9579,-3.9601,-3.9655,-3.9719,-3.9677,-3.9696,-3.9672,-3.9721,-3.9846,-3.9669,-3.9669,-3.9702,-3.9978,-4.0014,-4.0038,-3.9819,-3.9822,-3.9825,-3.9977,0,-3.9495,-3.9608,-3.958,-3.9691,-3.974,-3.9684,-3.9741,-3.9756,-3.975,-3.979,-3.9782,-3.9829,-3.9769,-3.978,-3.9827,-3.9821,-3.9901,-3.9809,-3.9869,-3.9871,-3.9867,-4.0064,-4.0102,-4.0245,-3.9996,-3.9999,-4.0002,0,-3.9685,-3.9715,-3.9832,-3.9839,-3.9859,-3.991,-3.9943,-3.9983,-3.9999,-3.999,-4.0013,-3.9979,-4.0043,-3.9968,-4.0056,-3.9995,-4.0017,-4.0018,-4.0023,-4.0028,-3.9945,-4.0075,-4.0289,-4.0312,-4.0032,-4.0029,-4.0027,0,-3.9831,-3.99,-3.9979,-3.9992,-4.0002,-4.0039,-4.0045,-4.0057,-4.0082,-4.0111,-4.0127,-4.0162,-4.0182,-4.0211,-4.0187,-4.0135,-4.0279,-4.0202,-4.0275,-4.0275,-4.0308,-4.0307,-4.053,-4.0322,-4.0321,-4.0321,-4.0321,0,-4.0002,-4.0076,-4.0044,-4.0093,-4.0174,-4.0141,-4.0222,-4.0221,-4.0232,-4.028,-4.0232,-4.0278,-4.0243,-4.0286,-4.0268,-4.0344,-4.0353,-4.0348,-4.0343,-4.0353,-4.0354,-4.0368,-4.0358,-4.0327,-4.0325,-4.0324,-4.0323,0,-4.0178,-4.016,-4.0243,-4.0245,-4.0248,-4.0307,-4.0309,-4.0354,-4.0344,-4.0405,-4.0417,-4.0401,-4.0449,-4.0428,-4.0478,-4.0465,-4.0563,-4.0544,-4.0558,-4.0554,-4.0628,-4.0621,-4.0869,-4.09,-4.067,-4.0673,-4.0674,0,-4.0289,-4.0345,-4.0353,-4.0382,-4.0391,-4.0438,-4.0463,-4.0432,-4.046,-4.0483,-4.0525,-4.0568,-4.0602,-4.068,-4.0673,-4.0711,-4.0693,-4.0777,-4.0698,-4.0707,-4.0695,-4.0692,-4.0698,-4.0793,-4.0796,-4.0798,-4.0799,0,-4.0488,-4.0476,-4.0515,-4.0551,-4.0582,-4.0608,-4.0631,-4.0657,-4.0627,-4.0661,-4.0709,-4.0735,-4.0785,-4.0829,-4.0863,-4.0868,-4.083,-4.0824,-4.0843,-4.0855,-4.0861,-4.0859,-4.0602,-4.0819,-4.0817,-4.0815,-4.0814,-4.0814,-4.0636,-4.0683,-4.0696,-4.0741,-4.0754,-4.0776,-4.0819,-4.0814,-4.0853,-4.0893,-4.0872,-4.0928,-4.0942,-4.0983,-4.0994,-4.1037,-4.1004,-4.1031,-4.1038,-4.1046,-4.1056,-4.0853,-4.1043,-4.1042,-4.1042,-4.1041,-4.1041,0,-4.0833,-4.0839,-4.088,-4.0913,-4.0948,-4.0908,-4.093,-4.0962,-4.1012,-4.1029,-4.1063,-4.1118,-4.116,-4.1156,-4.1195,-4.123,-4.1214,-4.1242,-4.1239,-4.1241,-4.1083,-4.1063,-4.1255,-4.1255,-4.1255,-4.1254,-4.1254,-4.1254,-4.094,-4.1017,-4.1007,-4.1091,-4.1096,-4.1151,-4.1167,-4.1187,-4.12,-4.1264,-4.1299,-4.1296,-4.1305,-4.1343,-4.138,-4.1378,-4.1395,-4.143,-4.1421,-4.1273,-4.1252,-4.1232,-4.1213,-4.1433,-4.1434,-4.1576,-4.1577,-4.1578]}]]